{"data":{"norad_id":66547,"intl_designator":"2025-266C","name":"SHIJIAN-30C (SJ-30C)","alt_names":[],"object_type":"PAYLOAD","status":"ACTIVE","operator":null,"country":"PRC","launch_date":"2025-11-19","launch_site_code":"JSC","launch_vehicle":null,"mission":null,"orbit_class":"UNKNOWN","rcs_meters":null,"size_class":null,"mass_kg":null,"dimensions":null,"purposes":[],"wikipedia_slug":null,"has_3d_model":false,"image_url":null,"decayed_at":null,"tle_current":{"epoch":"2026-05-24T21:29:50.445600Z","epoch_age_seconds":80009,"freshness":"FRESH","line1":"1 66547U 25266C   26144.89572275  .00006953  00000+0  37849-3 0  9997","line2":"2 66547  51.7980 288.5033 0008972 176.6396 183.4642 15.15464114 28328","mean_motion":15.15464114,"eccentricity":0.0008972,"inclination_deg":51.798,"raan_deg":288.5033,"arg_perigee_deg":176.6396,"mean_anomaly_deg":183.4642,"bstar":0.00037849,"rev_number":2832,"period_min":95.020395844226,"perigee_km":513.3812866101,"apogee_km":525.75853188806,"semimajor_km":6897.7069092491,"source":"CELESTRAK","updated_at":"2026-05-25T13:38:06.304090Z"}}}